{"data":{"norad_id":62952,"intl_designator":"2025-029E","name":"STARLINK-32865","alt_names":[],"object_type":"PAYLOAD","status":"ACTIVE","operator":null,"country":"US","launch_date":"2025-02-11","launch_site_code":"AFWTR","launch_vehicle":null,"mission":null,"orbit_class":"UNKNOWN","rcs_meters":null,"size_class":null,"mass_kg":null,"dimensions":null,"purposes":["comms"],"wikipedia_slug":null,"has_3d_model":false,"image_url":null,"decayed_at":null,"tle_current":{"epoch":"2026-09-21T20:32:50.986752Z","epoch_age_seconds":47997,"freshness":"FRESH","line1":"1 62952U 25029E   26264.85614568  .00013996  00000+0  46171-3 0  9994","line2":"2 62952  53.1588  39.7156 0001045  70.3253 289.7862 15.31715514 91383","mean_motion":15.31715514,"eccentricity":0.0001045,"inclination_deg":53.1588,"raan_deg":39.7156,"arg_perigee_deg":70.3253,"mean_anomaly_deg":289.7862,"bstar":0.00046171,"rev_number":9138,"period_min":94.012235747323,"perigee_km":469.97804637598,"apogee_km":471.40945200256,"semimajor_km":6848.8307491893,"source":"CELESTRAK","updated_at":"2026-09-22T09:00:49.711784Z"}}}